| time (UTC) | temp C | wind direction | speed KPH | gust KPH | rain 1hr cm | rain 24hr cm | rain mn cm | humidity % | barometer mb |
| 20260508125009 | 6 | 192 | 0.0 | 3.2 | 0.00 | 0.00 | 0.00 | 90 | 1017.6 |
| 20260508124504 | 5 | 68 | 1.6 | 3.2 | 0.00 | 0.00 | 0.00 | 90 | 1017.6 |
| 20260508124006 | 5 | 181 | 0.0 | 3.2 | 0.00 | 0.00 | 0.00 | 90 | 1017.7 |
| 20260508123509 | 5 | 144 | 0.0 | 6.4 | 0.00 | 0.00 | 0.00 | 91 | 1017.7 |
| 20260508123025 | 5 | 141 | 0.0 | 6.4 | 0.00 | 0.00 | 0.00 | 91 | 1017.6 |
| 20260508122507 | 5 | 223 | 3.2 | 6.4 | 0.00 | 0.00 | 0.00 | 92 | 1017.5 |
| 20260508122011 | 5 | 189 | 1.6 | 3.2 | 0.00 | 0.00 | 0.00 | 93 | 1017.8 |
| 20260508121530 | 5 | 95 | 0.0 | 3.2 | 0.00 | 0.00 | 0.00 | 93 | 1018.0 |
| 20260508121010 | 5 | 58 | 0.0 | 3.2 | 0.00 | 0.00 | 0.00 | 93 | 1017.9 |
| 20260508120503 | 4 | 41 | 0.0 | 3.2 | 0.00 | 0.00 | 0.00 | 93 | 1017.7 |
| 20260508120012 | 4 | 41 | 1.6 | 3.2 | 0.00 | 0.00 | 0.00 | 93 | 1017.5 |
| 20260508115507 | 4 | 240 | 0.0 | 3.2 | 0.00 | 0.00 | 0.00 | 93 | 1017.1 |
| 20260508115007 | 4 | 240 | 0.0 | 3.2 | 0.00 | 0.00 | 0.00 | 93 | 1016.9 |
| 20260508114524 | 3 | 229 | 1.6 | 3.2 | 0.00 | 0.00 | 0.00 | 92 | 1016.6 |
| 20260508114007 | 3 | 221 | 0.0 | 3.2 | 0.00 | 0.00 | 0.00 | 92 | 1016.4 |
| 20260508113508 | 3 | 221 | 0.0 | 3.2 | 0.00 | 0.00 | 0.00 | 92 | 1016.5 |
| 20260508113028 | 3 | 227 | 0.0 | 1.6 | 0.00 | 0.00 | 0.00 | 92 | 1016.4 |
| 20260508112504 | 3 | 234 | 0.0 | 3.2 | 0.00 | 0.00 | 0.00 | 92 | 1016.4 |
| 20260508112003 | 3 | 234 | 0.0 | 3.2 | 0.00 | 0.00 | 0.00 | 92 | 1016.5 |
| 20260508111516 | 3 | 231 | 0.0 | 3.2 | 0.00 | 0.00 | 0.00 | 92 | 1016.5 |
| 20260508111008 | 3 | 231 | 0.0 | 3.2 | 0.00 | 0.00 | 0.00 | 92 | 1016.6 |
| 20260508110508 | 4 | 231 | 0.0 | 3.2 | 0.00 | 0.00 | 0.00 | 92 | 1016.5 |
| 20260508110004 | 4 | 222 | 1.6 | 3.2 | 0.00 | 0.00 | 0.00 | 91 | 1016.4 |
| 20260508105503 | 4 | 301 | 0.0 | 3.2 | 0.00 | 0.00 | 0.00 | 91 | 1016.4 |
| 20260508105004 | 4 | 336 | 0.0 | 3.2 | 0.00 | 0.00 | 0.00 | 91 | 1016.5 |
| 20260508104508 | 4 | 211 | 1.6 | 3.2 | 0.00 | 0.00 | 0.00 | 91 | 1016.4 |
| 20260508104003 | 4 | 195 | 0.0 | 3.2 | 0.00 | 0.00 | 0.00 | 91 | 1016.3 |
| 20260508103506 | 4 | 195 | 0.0 | 3.2 | 0.00 | 0.00 | 0.00 | 91 | 1016.2 |
| 20260508103018 | 4 | 188 | 0.0 | 3.2 | 0.00 | 0.00 | 0.00 | 91 | 1016.1 |
| 20260508102508 | 4 | 188 | 1.6 | 3.2 | 0.00 | 0.00 | 0.00 | 91 | 1016.1 |
| 20260508102010 | 4 | 56 | 0.0 | 3.2 | 0.00 | 0.00 | 0.00 | 91 | 1016.1 |
| 20260508101505 | 4 | 60 | 0.0 | 3.2 | 0.00 | 0.00 | 0.00 | 91 | 1015.8 |
| 20260508101004 | 4 | 81 | 0.0 | 4.8 | 0.00 | 0.00 | 0.00 | 91 | 1015.6 |
| 20260508100507 | 4 | 45 | 0.0 | 4.8 | 0.00 | 0.00 | 0.00 | 91 | 1015.5 |
| 20260508100012 | 4 | 44 | 1.6 | 3.2 | 0.00 | 0.00 | 0.00 | 91 | 1015.2 |
| 20260508095505 | 4 | 188 | 0.0 | 3.2 | 0.00 | 0.00 | 0.00 | 90 | 1015.1 |
| 20260508095007 | 4 | 189 | 0.0 | 3.2 | 0.00 | 0.00 | 0.00 | 90 | 1015.1 |
| 20260508094522 | 4 | 189 | 0.0 | 3.2 | 0.00 | 0.00 | 0.00 | 90 | 1015.2 |
| 20260508094008 | 5 | 189 | 0.0 | 3.2 | 0.00 | 0.00 | 0.00 | 90 | 1015.3 |
| 20260508093504 | 5 | 188 | 0.0 | 3.2 | 0.00 | 0.00 | 0.00 | 90 | 1015.3 |
| 20260508093011 | 5 | 189 | 1.6 | 3.2 | 0.00 | 0.00 | 0.00 | 89 | 1015.3 |
| 20260508092505 | 5 | 183 | 0.0 | 3.2 | 0.00 | 0.00 | 0.00 | 89 | 1015.2 |
| 20260508092004 | 5 | 183 | 0.0 | 3.2 | 0.00 | 0.00 | 0.00 | 89 | 1015.2 |
| 20260508091515 | 5 | 183 | 0.0 | 3.2 | 0.00 | 0.00 | 0.00 | 89 | 1015.2 |
| 20260508091012 | 5 | 183 | 0.0 | 3.2 | 0.00 | 0.00 | 0.00 | 88 | 1015.3 |
| 20260508090507 | 5 | 183 | 0.0 | 3.2 | 0.00 | 0.00 | 0.00 | 88 | 1015.4 |
| 20260508090043 | 5 | 183 | 0.0 | 3.2 | 0.00 | 0.00 | 0.00 | 88 | 1015.4 |
| 20260508085502 | 5 | 183 | 0.0 | 1.6 | 0.00 | 0.00 | 0.00 | 88 | 1015.6 |
| 20260508085002 | 5 | 183 | 0.0 | 1.6 | 0.00 | 0.00 | 0.00 | 88 | 1015.6 |
| 20260508084507 | 6 | 183 | 0.0 | 3.2 | 0.00 | 0.00 | 0.00 | 87 | 1015.6 |
| 20260508084008 | 6 | 183 | 0.0 | 3.2 | 0.00 | 0.00 | 0.00 | 88 | 1015.7 |
| 20260508083507 | 6 | 183 | 0.0 | 3.2 | 0.00 | 0.00 | 0.00 | 87 | 1015.7 |
| 20260508083024 | 6 | 182 | 0.0 | 3.2 | 0.00 | 0.00 | 0.00 | 87 | 1015.8 |
| 20260508082509 | 6 | 182 | 0.0 | 3.2 | 0.00 | 0.00 | 0.00 | 87 | 1015.8 |
| 20260508082010 | 6 | 168 | 0.0 | 3.2 | 0.00 | 0.00 | 0.00 | 86 | 1015.8 |
| 20260508081504 | 6 | 84 | 0.0 | 3.2 | 0.00 | 0.00 | 0.00 | 86 | 1015.9 |
| 20260508081003 | 6 | 82 | 0.0 | 3.2 | 0.00 | 0.00 | 0.00 | 85 | 1016.0 |
| 20260508080507 | 6 | 57 | 0.0 | 1.6 | 0.00 | 0.00 | 0.00 | 86 | 1016.1 |
| 20260508080014 | 7 | 142 | 0.0 | 3.2 | 0.00 | 0.00 | 0.00 | 86 | 1016.1 |
| 20260508075507 | 7 | 214 | 0.0 | 3.2 | 0.00 | 0.00 | 0.00 | 86 | 1016.2 |
| 20260508075008 | 7 | 229 | 1.6 | 3.2 | 0.00 | 0.00 | 0.00 | 86 | 1016.3 |
| 20260508074526 | 7 | 236 | 0.0 | 3.2 | 0.00 | 0.00 | 0.00 | 86 | 1016.4 |
| 20260508074009 | 7 | 238 | 0.0 | 3.2 | 0.00 | 0.00 | 0.00 | 85 | 1016.6 |
| 20260508073503 | 7 | 220 | 0.0 | 3.2 | 0.00 | 0.00 | 0.00 | 85 | 1016.6 |
| 20260508073007 | 7 | 72 | 0.0 | 3.2 | 0.00 | 0.00 | 0.00 | 85 | 1016.5 |
| 20260508072503 | 7 | 92 | 0.0 | 3.2 | 0.00 | 0.00 | 0.00 | 85 | 1016.4 |
| 20260508072004 | 7 | 92 | 0.0 | 3.2 | 0.00 | 0.00 | 0.00 | 84 | 1016.3 |
| 20260508071518 | 7 | 92 | 0.0 | 3.2 | 0.00 | 0.00 | 0.00 | 85 | 1016.3 |
| 20260508071008 | 7 | 39 | 0.0 | 3.2 | 0.00 | 0.00 | 0.00 | 85 | 1016.3 |
| 20260508070513 | 7 | 39 | 0.0 | 3.2 | 0.00 | 0.00 | 0.00 | 84 | 1016.2 |
| 20260508070027 | 8 | 36 | 0.0 | 3.2 | 0.00 | 0.00 | 0.00 | 84 | 1016.1 |
| 20260508065504 | 8 | 47 | 0.0 | 3.2 | 0.00 | 0.00 | 0.00 | 84 | 1016.2 |
| 20260508065008 | 8 | 47 | 0.0 | 3.2 | 0.00 | 0.00 | 0.00 | 84 | 1016.1 |
| 20260508064512 | 8 | 51 | 0.0 | 3.2 | 0.00 | 0.00 | 0.00 | 83 | 1015.9 |
| 20260508064006 | 8 | 51 | 0.0 | 3.2 | 0.00 | 0.00 | 0.00 | 82 | 1015.9 |
| 20260508063507 | 8 | 52 | 0.0 | 3.2 | 0.00 | 0.00 | 0.00 | 81 | 1015.7 |
| 20260508063020 | 8 | 52 | 0.0 | 3.2 | 0.00 | 0.00 | 0.00 | 81 | 1015.8 |
| 20260508062507 | 9 | 56 | 0.0 | 3.2 | 0.00 | 0.00 | 0.00 | 80 | 1015.7 |
| 20260508062011 | 9 | 177 | 0.0 | 3.2 | 0.00 | 0.00 | 0.00 | 79 | 1015.6 |
| 20260508061506 | 9 | 214 | 0.0 | 4.8 | 0.00 | 0.00 | 0.00 | 78 | 1015.6 |
| 20260508061006 | 9 | 225 | 1.6 | 4.8 | 0.00 | 0.00 | 0.00 | 78 | 1015.6 |
| 20260508060506 | 10 | 167 | 0.0 | 4.8 | 0.00 | 0.00 | 0.00 | 77 | 1015.6 |
| 20260508060017 | 10 | 129 | 0.0 | 3.2 | 0.00 | 0.00 | 0.00 | 77 | 1015.5 |
| 20260508055506 | 10 | 129 | 0.0 | 3.2 | 0.00 | 0.00 | 0.00 | 74 | 1015.4 |
| 20260508055012 | 11 | 129 | 0.0 | 3.2 | 0.00 | 0.00 | 0.00 | 74 | 1015.6 |
| 20260508054534 | 11 | 128 | 0.0 | 3.2 | 0.00 | 0.00 | 0.00 | 73 | 1015.3 |
| 20260508054013 | 11 | 128 | 1.6 | 4.8 | 0.00 | 0.00 | 0.00 | 69 | 1015.7 |
| 20260508053503 | 11 | 244 | 0.0 | 4.8 | 0.00 | 0.00 | 0.00 | 69 | 1016.5 |
| 20260508053013 | 12 | 259 | 0.0 | 3.2 | 0.00 | 0.00 | 0.00 | 67 | 1016.5 |
| 20260508052507 | 12 | 259 | 0.0 | 4.8 | 0.00 | 0.00 | 0.00 | 61 | 1016.6 |
| 20260508052007 | 12 | 256 | 0.0 | 4.8 | 0.00 | 0.00 | 0.00 | 61 | 1016.6 |
| 20260508051523 | 11 | 251 | 0.0 | 3.2 | 0.00 | 0.00 | 0.00 | 63 | 1016.3 |
| 20260508051013 | 11 | 242 | 0.0 | 3.2 | 0.00 | 0.00 | 0.00 | 63 | 1015.8 |
| 20260508050509 | 11 | 240 | 0.0 | 3.2 | 0.00 | 0.00 | 0.00 | 63 | 1015.4 |
| 20260508050031 | 12 | 240 | 0.0 | 3.2 | 0.00 | 0.00 | 0.00 | 63 | 1015.2 |
| 20260508045510 | 12 | 241 | 0.0 | 3.2 | 0.00 | 0.00 | 0.00 | 61 | 1015.4 |
| 20260508045005 | 12 | 241 | 0.0 | 3.2 | 0.00 | 0.00 | 0.00 | 61 | 1015.2 |
| 20260508044511 | 12 | 241 | 0.0 | 3.2 | 0.00 | 0.00 | 0.00 | 60 | 1015.1 |
| 20260508044006 | 12 | 236 | 0.0 | 3.2 | 0.00 | 0.00 | 0.00 | 60 | 1015.2 |
| 20260508043505 | 12 | 199 | 0.0 | 1.6 | 0.00 | 0.00 | 0.00 | 59 | 1015.1 |
| 20260508043024 | 12 | 175 | 0.0 | 3.2 | 0.00 | 0.00 | 0.00 | 58 | 1015.0 |
| 20260508042508 | 12 | 175 | 0.0 | 4.8 | 0.00 | 0.00 | 0.00 | 58 | 1015.0 |
| 20260508042008 | 13 | 136 | 0.0 | 4.8 | 0.00 | 0.00 | 0.00 | 57 | 1014.9 |
| 20260508041526 | 13 | 95 | 1.6 | 4.8 | 0.00 | 0.00 | 0.00 | 56 | 1015.1 |
| 20260508041005 | 13 | 109 | 1.6 | 3.2 | 0.00 | 0.00 | 0.00 | 56 | 1015.2 |
| 20260508040507 | 13 | 107 | 1.6 | 6.4 | 0.00 | 0.00 | 0.00 | 55 | 1015.2 |
| 20260508040017 | 14 | 85 | 0.0 | 11.3 | 0.00 | 0.00 | 0.00 | 54 | 1015.4 |
| 20260508035509 | 14 | 19 | 3.2 | 12.9 | 0.00 | 0.00 | 0.00 | 51 | 1015.5 |
| 20260508035007 | 14 | 360 | 4.8 | 12.9 | 0.00 | 0.00 | 0.00 | 48 | 1015.4 |
| 20260508034538 | 14 | 23 | 1.6 | 4.8 | 0.00 | 0.00 | 0.00 | 47 | 1015.2 |
| 20260508034007 | 14 | 346 | 1.6 | 4.8 | 0.00 | 0.00 | 0.00 | 47 | 1015.1 |
| 20260508033509 | 14 | 34 | 1.6 | 3.2 | 0.00 | 0.00 | 0.00 | 48 | 1014.7 |
| 20260508033010 | 14 | 24 | 0.0 | 4.8 | 0.00 | 0.00 | 0.00 | 46 | 1014.6 |
| 20260508032505 | 14 | 40 | 1.6 | 4.8 | 0.00 | 0.00 | 0.00 | 46 | 1014.5 |
| 20260508032009 | 14 | 50 | 1.6 | 3.2 | 0.00 | 0.00 | 0.00 | 46 | 1014.4 |
| 20260508031521 | 15 | 5 | 0.0 | 3.2 | 0.00 | 0.00 | 0.00 | 44 | 1014.4 |
| 20260508031010 | 15 | 321 | 0.0 | 3.2 | 0.00 | 0.00 | 0.00 | 43 | 1014.3 |
| 20260508030510 | 15 | 320 | 0.0 | 3.2 | 0.00 | 0.00 | 0.00 | 43 | 1014.1 |
| 20260508030027 | 15 | 331 | 0.0 | 3.2 | 0.00 | 0.00 | 0.00 | 44 | 1013.9 |
| 20260508025511 | 15 | 34 | 0.0 | 4.8 | 0.00 | 0.00 | 0.00 | 42 | 1013.9 |
| 20260508025007 | 15 | 167 | 0.0 | 4.8 | 0.00 | 0.00 | 0.00 | 41 | 1013.9 |
| 20260508024532 | 15 | 168 | 0.0 | 8.0 | 0.00 | 0.00 | 0.00 | 41 | 1013.9 |
| 20260508024008 | 16 | 268 | 3.2 | 8.0 | 0.00 | 0.00 | 0.00 | 39 | 1013.8 |
| 20260508023508 | 16 | 163 | 0.0 | 9.7 | 0.00 | 0.00 | 0.00 | 39 | 1013.8 |
| 20260508023023 | 16 | 198 | 1.6 | 9.7 | 0.00 | 0.00 | 0.00 | 38 | 1013.8 |
| 20260508022516 | 16 | 186 | 1.6 | 22.5 | 0.00 | 0.00 | 0.00 | 38 | 1013.7 |
| 20260508022010 | 16 | 221 | 3.2 | 22.5 | 0.00 | 0.00 | 0.00 | 38 | 1013.6 |
| 20260508021530 | 16 | 217 | 6.4 | 17.7 | 0.00 | 0.00 | 0.00 | 38 | 1013.6 |
| 20260508021007 | 16 | 226 | 3.2 | 14.5 | 0.00 | 0.00 | 0.00 | 39 | 1013.6 |
| 20260508020506 | 16 | 199 | 1.6 | 8.0 | 0.00 | 0.00 | 0.00 | 41 | 1013.6 |
| 20260508020019 | 16 | 196 | 1.6 | 8.0 | 0.00 | 0.00 | 0.00 | 42 | 1013.7 |
| 20260508015506 | 16 | 232 | 1.6 | 6.4 | 0.00 | 0.00 | 0.00 | 42 | 1013.5 |
| 20260508015012 | 16 | 191 | 1.6 | 6.4 | 0.00 | 0.00 | 0.00 | 41 | 1013.3 |
| 20260508014526 | 16 | 110 | 0.0 | 4.8 | 0.00 | 0.00 | 0.00 | 40 | 1013.0 |
| 20260508014010 | 17 | 159 | 0.0 | 6.4 | 0.00 | 0.00 | 0.00 | 39 | 1013.0 |
| 20260508013510 | 17 | 109 | 1.6 | 6.4 | 0.00 | 0.00 | 0.00 | 38 | 1012.8 |
| 20260508013015 | 17 | 121 | 0.0 | 4.8 | 0.00 | 0.00 | 0.00 | 37 | 1012.9 |
| 20260508012507 | 17 | 99 | 0.0 | 3.2 | 0.00 | 0.00 | 0.00 | 34 | 1012.9 |
| 20260508012007 | 17 | 90 | 0.0 | 3.2 | 0.00 | 0.00 | 0.00 | 34 | 1013.0 |
| 20260508011529 | 17 | 92 | 0.0 | 9.7 | 0.00 | 0.00 | 0.00 | 35 | 1013.0 |
| 20260508011007 | 17 | 127 | 4.8 | 9.7 | 0.00 | 0.00 | 0.00 | 35 | 1013.0 |
| 20260508010511 | 17 | 83 | 3.2 | 9.7 | 0.00 | 0.00 | 0.00 | 35 | 1012.9 |
| 20260508010030 | 18 | 65 | 4.8 | 8.0 | 0.00 | 0.00 | 0.00 | 35 | 1012.7 |
| 20260508005510 | 18 | 166 | 0.0 | 6.4 | 0.00 | 0.00 | 0.00 | 33 | 1012.4 |
| 20260508005007 | 18 | 188 | 0.0 | 6.4 | 0.00 | 0.00 | 0.00 | 31 | 1012.2 |
| 20260508004535 | 18 | 210 | 1.6 | 6.4 | 0.00 | 0.00 | 0.00 | 32 | 1012.2 |
| 20260508004010 | 18 | 153 | 0.0 | 6.4 | 0.00 | 0.00 | 0.00 | 31 | 1012.2 |
| 20260508003512 | 18 | 224 | 0.0 | 6.4 | 0.00 | 0.00 | 0.00 | 31 | 1012.1 |
| 20260508003026 | 19 | 220 | 1.6 | 6.4 | 0.00 | 0.00 | 0.00 | 30 | 1012.0 |
| 20260508002508 | 20 | 209 | 1.6 | 8.0 | 0.00 | 0.00 | 0.00 | 29 | 1012.1 |
| 20260508002013 | 20 | 173 | 3.2 | 8.0 | 0.00 | 0.00 | 0.00 | 27 | 1012.0 |
| 20260508001537 | 20 | 177 | 0.0 | 3.2 | 0.00 | 0.00 | 0.00 | 25 | 1011.9 |
| 20260508001007 | 20 | 199 | 0.0 | 8.0 | 0.00 | 0.00 | 0.00 | 26 | 1011.9 |
| 20260508000508 | 20 | 189 | 1.6 | 8.0 | 0.00 | 0.00 | 0.00 | 25 | 1012.0 |
| 20260508000021 | 21 | 100 | 1.6 | 4.8 | 0.00 | 0.00 | 0.00 | 25 | 1012.1 |
| 20260507235509 | 21 | 194 | 1.6 | 4.8 | 0.00 | 0.00 | 0.00 | 25 | 1012.1 |
| 20260507235011 | 21 | 228 | 0.0 | 3.2 | 0.00 | 0.00 | 0.00 | 24 | 1012.0 |
| 20260507234531 | 21 | 314 | 0.0 | 3.2 | 0.00 | 0.00 | 0.00 | 23 | 1011.9 |
| 20260507234007 | 21 | 352 | 0.0 | 3.2 | 0.00 | 0.00 | 0.00 | 23 | 1011.9 |
| 20260507233517 | 21 | 336 | 1.6 | 3.2 | 0.00 | 0.00 | 0.00 | 24 | 1012.0 |
| 20260507233017 | 21 | 210 | 1.6 | 6.4 | 0.00 | 0.00 | 0.00 | 23 | 1012.0 |
| 20260507232508 | 21 | 227 | 1.6 | 8.0 | 0.00 | 0.00 | 0.00 | 23 | 1011.9 |
| 20260507232012 | 21 | 236 | 1.6 | 9.7 | 0.00 | 0.00 | 0.00 | 23 | 1012.0 |
| 20260507231525 | 22 | 284 | 3.2 | 9.7 | 0.00 | 0.00 | 0.00 | 23 | 1012.1 |
| 20260507231010 | 22 | 213 | 1.6 | 4.8 | 0.00 | 0.00 | 0.00 | 22 | 1012.1 |
| 20260507230510 | 22 | 107 | 1.6 | 6.4 | 0.00 | 0.00 | 0.00 | 22 | 1012.1 |
| 20260507230028 | 22 | 173 | 1.6 | 6.4 | 0.00 | 0.00 | 0.00 | 22 | 1012.0 |
| 20260507225509 | 21 | 265 | 3.2 | 8.0 | 0.00 | 0.00 | 0.00 | 22 | 1012.1 |
| 20260507225008 | 21 | 242 | 1.6 | 9.7 | 0.00 | 0.00 | 0.00 | 24 | 1012.1 |
| 20260507224522 | 21 | 236 | 3.2 | 9.7 | 0.00 | 0.00 | 0.00 | 22 | 1012.1 |
| 20260507224007 | 21 | 250 | 1.6 | 8.0 | 0.00 | 0.00 | 0.00 | 23 | 1012.1 |
| 20260507223508 | 21 | 257 | 1.6 | 11.3 | 0.00 | 0.00 | 0.00 | 23 | 1012.1 |
| 20260507223027 | 21 | 24 | 3.2 | 16.1 | 0.00 | 0.00 | 0.00 | 24 | 1012.2 |
| 20260507222512 | 21 | 251 | 4.8 | 16.1 | 0.00 | 0.03 | 0.00 | 23 | 1012.2 |
| 20260507222009 | 21 | 180 | 1.6 | 8.0 | 0.00 | 0.03 | 0.00 | 23 | 1012.2 |
| 20260507221539 | 22 | 333 | 1.6 | 9.7 | 0.00 | 0.03 | 0.00 | 22 | 1012.2 |
| 20260507221008 | 22 | 342 | 1.6 | 9.7 | 0.00 | 0.05 | 0.00 | 23 | 1012.4 |
| 20260507220512 | 21 | 185 | 1.6 | 8.0 | 0.00 | 0.08 | 0.00 | 24 | 1012.5 |
| 20260507220024 | 21 | 185 | 3.2 | 9.7 | 0.00 | 0.08 | 0.00 | 25 | 1012.7 |
| 20260507215510 | 21 | 169 | 3.2 | 16.1 | 0.00 | 0.10 | 0.00 | 25 | 1012.8 |
| 20260507215010 | 21 | 229 | 4.8 | 14.5 | 0.00 | 0.13 | 0.00 | 26 | 1012.9 |
| 20260507214528 | 20 | 169 | 3.2 | 14.5 | 0.00 | 0.15 | 0.00 | 26 | 1013.1 |
| 20260507214009 | 20 | 157 | 3.2 | 9.7 | 0.00 | 0.18 | 0.00 | 27 | 1013.1 |
| 20260507213511 | 20 | 248 | 3.2 | 16.1 | 0.00 | 0.20 | 0.00 | 26 | 1013.3 |
| 20260507213026 | 20 | 212 | 3.2 | 16.1 | 0.00 | 0.23 | 0.00 | 26 | 1013.3 |
| 20260507212506 | 20 | 236 | 3.2 | 12.9 | 0.00 | 0.28 | 0.00 | 26 | 1013.3 |
| 20260507212007 | 20 | 161 | 4.8 | 12.9 | 0.00 | 0.33 | 0.00 | 27 | 1013.4 |
| 20260507211504 | 19 | 20 | 3.2 | 6.4 | 0.00 | 0.38 | 0.00 | 27 | 1013.5 |
| 20260507211005 | 19 | 117 | 1.6 | 17.7 | 0.00 | 0.41 | 0.00 | 29 | 1013.5 |
| 20260507210503 | 19 | 304 | 1.6 | 17.7 | 0.00 | 0.46 | 0.00 | 28 | 1013.7 |
| 20260507210003 | 19 | 329 | 3.2 | 12.9 | 0.00 | 0.51 | 0.00 | 27 | 1013.7 |
| 20260507205505 | 18 | 96 | 3.2 | 12.9 | 0.00 | 0.53 | 0.00 | 26 | 1013.8 |
| 20260507205004 | 18 | 171 | 4.8 | 12.9 | 0.00 | 0.61 | 0.00 | 28 | 1014.0 |
| 20260507204505 | 18 | 229 | 0.0 | 8.0 | 0.00 | 0.64 | 0.00 | 27 | 1014.0 |
| 20260507204004 | 18 | 234 | 0.0 | 8.0 | 0.00 | 0.66 | 0.00 | 29 | 1014.2 |
| 20260507203504 | 18 | 182 | 3.2 | 11.3 | 0.00 | 0.69 | 0.00 | 28 | 1014.2 |
| 20260507203004 | 18 | 219 | 1.6 | 11.3 | 0.00 | 0.74 | 0.00 | 27 | 1014.2 |
| 20260507202503 | 18 | 209 | 4.8 | 9.7 | 0.00 | 0.76 | 0.00 | 26 | 1014.2 |
| 20260507202003 | 19 | 242 | 3.2 | 8.0 | 0.00 | 0.81 | 0.00 | 29 | 1014.2 |
| 20260507201504 | 19 | 213 | 1.6 | 8.0 | 0.00 | 0.86 | 0.00 | 28 | 1014.3 |
| 20260507201004 | 19 | 196 | 3.2 | 11.3 | 0.00 | 0.94 | 0.00 | 26 | 1014.4 |
| 20260507200504 | 19 | 321 | 3.2 | 9.7 | 0.00 | 0.99 | 0.00 | 26 | 1014.5 |
| 20260507200004 | 20 | 335 | 1.6 | 8.0 | 0.00 | 1.07 | 0.00 | 25 | 1014.5 |
| 20260507195503 | 20 | 277 | 1.6 | 14.5 | 0.00 | 1.14 | 0.00 | 27 | 1014.4 |
| 20260507195003 | 20 | 145 | 6.4 | 14.5 | 0.00 | 1.22 | 0.00 | 26 | 1014.5 |
| 20260507194506 | 19 | 287 | 6.4 | 11.3 | 0.00 | 1.30 | 0.00 | 28 | 1014.5 |
| 20260507194003 | 19 | 194 | 3.2 | 12.9 | 0.00 | 1.37 | 0.00 | 26 | 1014.5 |
| 20260507193503 | 18 | 235 | 3.2 | 16.1 | 0.00 | 1.47 | 0.00 | 28 | 1014.7 |
| 20260507193006 | 18 | 267 | 3.2 | 16.1 | 0.00 | 1.57 | 0.00 | 27 | 1014.7 |
| 20260507192504 | 18 | 239 | 3.2 | 12.9 | 0.00 | 1.65 | 0.00 | 28 | 1014.7 |
| 20260507192003 | 18 | 260 | 3.2 | 9.7 | 0.00 | 1.70 | 0.00 | 29 | 1015.0 |
| 20260507191511 | 18 | 352 | 1.6 | 11.3 | 0.00 | 1.73 | 0.00 | 31 | 1015.0 |
| 20260507191003 | 18 | 221 | 4.8 | 11.3 | 0.00 | 1.75 | 0.00 | 28 | 1015.1 |
| 20260507190504 | 17 | 202 | 1.6 | 14.5 | 0.00 | 1.78 | 0.00 | 30 | 1015.1 |
| 20260507190012 | 17 | 209 | 4.8 | 14.5 | 0.00 | 1.80 | 0.00 | 32 | 1015.2 |
| 20260507185504 | 17 | 204 | 3.2 | 9.7 | 0.00 | 1.83 | 0.00 | 33 | 1015.3 |
| 20260507185002 | 16 | 251 | 3.2 | 8.0 | 0.00 | 1.85 | 0.00 | 33 | 1015.3 |
| 20260507184504 | 16 | 9 | 1.6 | 6.4 | 0.00 | 1.88 | 0.00 | 33 | 1015.4 |
| 20260507184003 | 16 | 34 | 1.6 | 4.8 | 0.00 | 1.91 | 0.00 | 32 | 1015.4 |
| 20260507183504 | 16 | 306 | 1.6 | 4.8 | 0.00 | 1.91 | 0.00 | 35 | 1015.3 |
| 20260507183008 | 16 | 349 | 0.0 | 9.7 | 0.00 | 1.93 | 0.00 | 35 | 1015.5 |
| 20260507182504 | 16 | 72 | 1.6 | 9.7 | 0.00 | 1.96 | 0.00 | 33 | 1015.4 |
| 20260507182005 | 16 | 251 | 1.6 | 8.0 | 0.00 | 1.98 | 0.00 | 34 | 1015.4 |
| 20260507181508 | 15 | 221 | 3.2 | 8.0 | 0.00 | 1.98 | 0.00 | 33 | 1015.4 |
| 20260507181006 | 15 | 177 | 1.6 | 6.4 | 0.00 | 2.01 | 0.00 | 38 | 1015.4 |
| 20260507180507 | 15 | 277 | 0.0 | 6.4 | 0.00 | 2.01 | 0.00 | 39 | 1015.5 |
| 20260507180012 | 15 | 250 | 1.6 | 3.2 | 0.00 | 2.03 | 0.00 | 38 | 1015.6 |
| 20260507175504 | 15 | 250 | 0.0 | 3.2 | 0.00 | 2.03 | 0.00 | 39 | 1015.6 |
| 20260507175003 | 15 | 291 | 0.0 | 4.8 | 0.00 | 2.06 | 0.00 | 39 | 1015.7 |
| 20260507174508 | 14 | 254 | 1.6 | 6.4 | 0.00 | 2.08 | 0.00 | 39 | 1015.8 |
| 20260507174005 | 14 | 222 | 3.2 | 8.0 | 0.00 | 2.08 | 0.00 | 39 | 1015.8 |
| 20260507173504 | 14 | 236 | 1.6 | 8.0 | 0.00 | 2.11 | 0.00 | 40 | 1015.9 |
| 20260507173015 | 14 | 215 | 1.6 | 8.0 | 0.00 | 2.11 | 0.00 | 40 | 1015.8 |
| 20260507172504 | 14 | 244 | 3.2 | 8.0 | 0.00 | 2.11 | 0.00 | 39 | 1015.8 |
| 20260507172004 | 14 | 227 | 3.2 | 6.4 | 0.00 | 2.13 | 0.00 | 38 | 1015.9 |
| 20260507171511 | 14 | 242 | 1.6 | 4.8 | 0.00 | 2.13 | 0.00 | 37 | 1016.1 |
| 20260507171003 | 14 | 236 | 0.0 | 4.8 | 0.00 | 2.13 | 0.00 | 37 | 1016.1 |
| 20260507170504 | 14 | 293 | 1.6 | 9.7 | 0.00 | 2.13 | 0.00 | 36 | 1016.1 |
| 20260507170009 | 14 | 286 | 1.6 | 11.3 | 0.00 | 2.16 | 0.00 | 37 | 1016.1 |
| 20260507165507 | 13 | 248 | 1.6 | 12.9 | 0.00 | 2.16 | 0.00 | 38 | 1016.0 |
| 20260507165003 | 13 | 250 | 3.2 | 12.9 | 0.00 | 2.16 | 0.00 | 39 | 1016.0 |
| 20260507164513 | 13 | 249 | 0.0 | 3.2 | 0.00 | 2.16 | 0.00 | 40 | 1015.9 |
| 20260507164004 | 13 | 273 | 0.0 | 4.8 | 0.00 | 2.16 | 0.00 | 39 | 1015.8 |
| 20260507163505 | 13 | 292 | 1.6 | 8.0 | 0.00 | 2.18 | 0.00 | 38 | 1015.6 |
| 20260507163009 | 13 | 329 | 3.2 | 14.5 | 0.00 | 2.18 | 0.00 | 36 | 1015.6 |
| 20260507162505 | 13 | 329 | 4.8 | 14.5 | 0.00 | 2.18 | 0.00 | 37 | 1015.6 |
| 20260507162006 | 13 | 352 | 3.2 | 14.5 | 0.00 | 2.18 | 0.00 | 39 | 1015.6 |
| 20260507161508 | 12 | 291 | 3.2 | 14.5 | 0.00 | 2.18 | 0.00 | 38 | 1015.7 |
| 20260507161007 | 12 | 19 | 4.8 | 9.7 | 0.00 | 2.21 | 0.00 | 39 | 1015.9 |
| 20260507160504 | 12 | 350 | 4.8 | 14.5 | 0.00 | 2.21 | 0.00 | 38 | 1016.2 |
| 20260507160009 | 12 | 333 | 4.8 | 14.5 | 0.00 | 2.21 | 0.00 | 37 | 1016.0 |
| 20260507155503 | 12 | 324 | 4.8 | 14.5 | 0.00 | 2.21 | 0.00 | 38 | 1016.1 |
| 20260507155011 | 13 | 275 | 3.2 | 11.3 | 0.00 | 2.21 | 0.00 | 38 | 1016.2 |
| 20260507154510 | 13 | 292 | 3.2 | 14.5 | 0.00 | 2.21 | 0.00 | 38 | 1016.3 |
| 20260507154009 | 13 | 360 | 4.8 | 14.5 | 0.00 | 2.21 | 0.00 | 37 | 1016.3 |
| 20260507153504 | 14 | 286 | 3.2 | 14.5 | 0.00 | 2.21 | 0.00 | 37 | 1016.3 |
| 20260507153009 | 14 | 283 | 3.2 | 14.5 | 0.00 | 2.21 | 0.00 | 35 | 1016.3 |
| 20260507152504 | 14 | 313 | 1.6 | 16.1 | 0.00 | 2.21 | 0.00 | 35 | 1016.3 |
| 20260507152003 | 14 | 360 | 3.2 | 16.1 | 0.00 | 2.21 | 0.00 | 35 | 1016.1 |
| 20260507151511 | 14 | 304 | 4.8 | 12.9 | 0.00 | 2.21 | 0.00 | 36 | 1016.3 |
| 20260507151005 | 14 | 252 | 4.8 | 12.9 | 0.00 | 2.21 | 0.00 | 36 | 1016.3 |
| 20260507150504 | 14 | 270 | 4.8 | 9.7 | 0.00 | 2.21 | 0.00 | 37 | 1016.3 |
| 20260507150009 | 13 | 9 | 4.8 | 14.5 | 0.00 | 2.21 | 0.00 | 38 | 1016.3 |
| 20260507145503 | 13 | 335 | 6.4 | 14.5 | 0.00 | 2.21 | 0.00 | 38 | 1016.1 |
| 20260507145007 | 13 | 270 | 3.2 | 14.5 | 0.00 | 2.21 | 0.00 | 40 | 1016.0 |
| 20260507144509 | 13 | 272 | 4.8 | 14.5 | 0.00 | 2.21 | 0.00 | 37 | 1016.0 |
| 20260507144004 | 13 | 261 | 3.2 | 11.3 | 0.00 | 2.24 | 0.00 | 38 | 1015.9 |
| 20260507143505 | 13 | 247 | 3.2 | 14.5 | 0.00 | 2.24 | 0.00 | 37 | 1015.9 |
| 20260507143012 | 13 | 268 | 3.2 | 12.9 | 0.00 | 2.24 | 0.00 | 39 | 1015.9 |
| 20260507142504 | 13 | 306 | 4.8 | 12.9 | 0.00 | 2.24 | 0.00 | 39 | 1015.7 |
| 20260507142011 | 13 | 323 | 4.8 | 17.7 | 0.00 | 2.24 | 0.00 | 39 | 1015.7 |
| 20260507141512 | 13 | 334 | 3.2 | 17.7 | 0.00 | 2.24 | 0.00 | 39 | 1015.8 |
| 20260507141004 | 13 | 329 | 1.6 | 16.1 | 0.00 | 2.24 | 0.00 | 40 | 1015.9 |
| 20260507140506 | 13 | 284 | 3.2 | 16.1 | 0.00 | 2.24 | 0.00 | 39 | 1015.9 |
| 20260507140013 | 13 | 330 | 8.0 | 14.5 | 0.00 | 2.24 | 0.00 | 39 | 1015.8 |
| 20260507135506 | 12 | 334 | 6.4 | 16.1 | 0.00 | 2.24 | 0.00 | 39 | 1015.8 |
| 20260507135008 | 12 | 9 | 6.4 | 16.1 | 0.00 | 2.24 | 0.00 | 40 | 1015.8 |
| 20260507134514 | 12 | 317 | 8.0 | 14.5 | 0.00 | 2.24 | 0.00 | 39 | 1015.8 |
| 20260507134005 | 12 | 305 | 4.8 | 12.9 | 0.00 | 2.24 | 0.00 | 41 | 1015.9 |
| 20260507133505 | 11 | 321 | 3.2 | 12.9 | 0.00 | 2.24 | 0.00 | 40 | 1016.1 |
| 20260507133019 | 11 | 319 | 3.2 | 14.5 | 0.00 | 2.24 | 0.00 | 41 | 1016.1 |
| 20260507132504 | 11 | 257 | 4.8 | 16.1 | 0.00 | 2.24 | 0.00 | 40 | 1016.1 |
| 20260507132009 | 11 | 300 | 1.6 | 17.7 | 0.00 | 2.24 | 0.00 | 41 | 1016.0 |
| 20260507131516 | 10 | 317 | 3.2 | 17.7 | 0.00 | 2.24 | 0.00 | 42 | 1016.1 |
| 20260507131004 | 10 | 284 | 3.2 | 14.5 | 0.00 | 2.24 | 0.00 | 43 | 1015.9 |
| 20260507130504 | 10 | 287 | 1.6 | 14.5 | 0.00 | 2.24 | 0.00 | 44 | 1015.8 |
| 20260507130016 | 9 | 344 | 3.2 | 11.3 | 0.00 | 2.24 | 0.00 | 45 | 1015.7 |
| 20260507125507 | 9 | 263 | 1.6 | 4.8 | 0.00 | 2.24 | 0.00 | 46 | 1015.7 |